This demonstration page uses our WeatherBlox Daily Observations layout. Learn more.

Left ArrowRight Arrow

Hourly Observations for June 27, 2022

Temp ( °F °C ) Dew Point ( °F °C ) Humidity (%) Winds ( mph kmh ) Pressure ( in mb ) Visibility ( mi km ) Precip ( " mm )
12:51 am 00:51 Mostly Cloudy with Nearby Thunderstorms 69 20.6 63 17.2 81 81 ESE 13 20 30.09 1019 10 16 0.00 0.00
1:10 am 01:10 Mostly Cloudy 70 21 63 17 78 78 SE 15 24 30.10 1019 10 16 0.00 0.00
1:51 am 01:51 Cloudy with Light Rain 67 19.4 64 17.8 91 91 E 14 22 30.10 1019 10 16 0.01 0.25
2:51 am 02:51 Cloudy 67 19.4 64 17.8 91 91 E 9 15 30.11 1020 10 16 0.01 0.25
3:09 am 03:09 Cloudy 67 19.4 64 17.8 91 91 E 10 17 30.12 1020 10 16 0.00 0.00
3:17 am 03:17 Cloudy 67 19.4 64 17.8 91 91 E 10 17 30.12 1020 10 16 0.00 0.00
3:51 am 03:51 Cloudy 68 20 65 18.3 90 90 ENE 10 17 30.11 1020 10 16 0.00 0.00
4:51 am 04:51 Cloudy 69 20.6 65 18.3 87 87 E 6 9 30.12 1020 10 16 0.00 0.00
5:51 am 05:51 Mostly Cloudy with Light Rain 67 19.4 66 18.9 97 97 ESE 6 9 30.13 1020 10 16 0.01 0.25
6:51 am 06:51 Cloudy 67 19.4 67 19.4 100 100 E 5 7 30.12 1020 10 16 0.02 0.51
7:51 am 07:51 Mostly Cloudy 69 20.6 67 19.4 93 93 SE 10 17 30.11 1020 10 16 0.00 0.00
8:51 am 08:51 Partly Cloudy 72 22.2 66 18.9 82 82 ESE 13 20 30.10 1019 10 16 0.00 0.00
9:51 am 09:51 Sunny 75 23.9 65 18.3 71 71 ESE 12 19 30.09 1019 10 16 0.00 0.00
10:51 am 10:51 undefined N/A N/A N/A undefined N/A N/A N/A 0.00 0.00
11:51 am 11:51 undefined N/A N/A N/A undefined N/A N/A N/A 0.00 0.00
12:51 pm 12:51 undefined N/A N/A N/A undefined N/A N/A N/A 0.00 0.00
1:51 pm 13:51 Mostly Sunny 87 30.6 63 17.2 45 45 S 7 11 30.00 1016 10 16 0.00 0.00
2:51 pm 14:51 Sunny 86 30 62 16.7 45 45 S 7 11 29.97 1015 10 16 0.00 0.00
3:51 pm 15:51 Sunny 88 31.1 59 15 38 38 ESE 5 7 29.94 1014 10 16 0.00 0.00
4:51 pm 16:51 Sunny 89 31.7 58 14.4 35 35 SE 5 7 29.92 1013 10 16 0.00 0.00
5:51 pm 17:51 Sunny 88 31.1 58 14.4 36 36 SSE 3 6 29.92 1013 10 16 0.00 0.00
6:51 pm 18:51 Mostly Cloudy 87 30.6 59 15 39 39 Calm 29.93 1014 10 16 0.00 0.00
7:51 pm 19:51 Mostly Clear 85 29.4 59 15 42 42 N 13 20 29.95 1014 10 16 0.00 0.00
8:51 pm 20:51 Clear 83 28.3 58 14.4 43 43 SE 12 19 29.98 1015 10 16 0.00 0.00
9:28 pm 21:28 Mostly Cloudy 79 26 63 17 58 58 SSE 21 33 29.98 1015 10 16 0.00 0.00
9:51 pm 21:51 Cloudy 73 22.8 64 17.8 74 74 SSE 16 26 30.07 1018 10 16 0.00 0.00
10:36 pm 22:36 Cloudy with Nearby Thunderstorms 68 20 66 18.9 93 93 SSE 14 22 30.09 1019 10 16 0.01 0.25
10:51 pm 22:51 Cloudy with Nearby Thunderstorms 68 20 66 18.9 93 93 SSE 12 19 30.09 1019 5 8 0.04 1.02
11:00 pm 23:00 Mostly Cloudy with Light Rain 68 20 66 18.9 93 93 SSE 8 13 30.09 1019 10 16 0.01 0.25
11:51 pm 23:51 Partly Cloudy 70 21.1 66 18.9 87 87 E 6 9 30.07 1018 10 16 0.01 0.25

Powered by AerisWeather